| time (UTC) | temp F | wind direction | speed MPH | gust MPH | rain 1hr in | rain 24hr in | rain mn in | humidity % | barometer mb |
| 20260507172123 | 76 | 212 | 0.0 | 2.0 | 0.00 | 0.00 | 0.00 | 34 | 1015.5 |
| 20260507171618 | 76 | 193 | 1.0 | 2.0 | 0.00 | 0.00 | 0.00 | 35 | 1015.4 |
| 20260507171115 | 76 | 192 | 1.0 | 2.0 | 0.00 | 0.00 | 0.00 | 35 | 1015.3 |
| 20260507170612 | 76 | 299 | 6.0 | 7.0 | 0.00 | 0.00 | 0.00 | 33 | 1015.2 |
| 20260507170109 | 76 | 187 | 1.0 | 4.0 | 0.00 | 0.00 | 0.00 | 37 | 1015.3 |
| 20260507165604 | 76 | 179 | 1.0 | 2.0 | 0.00 | 0.00 | 0.00 | 37 | 1015.4 |
| 20260507165101 | 75 | 186 | 0.0 | 2.0 | 0.00 | 0.00 | 0.00 | 36 | 1015.5 |
| 20260507164557 | 75 | 182 | 1.0 | 4.0 | 0.00 | 0.00 | 0.00 | 36 | 1015.4 |
| 20260507164054 | 74 | 183 | 2.0 | 4.0 | 0.00 | 0.00 | 0.00 | 35 | 1015.3 |
| 20260507163552 | 74 | 206 | 1.0 | 2.0 | 0.00 | 0.00 | 0.00 | 38 | 1015.4 |
| 20260507163050 | 74 | 183 | 0.0 | 4.0 | 0.00 | 0.00 | 0.00 | 39 | 1015.5 |
| 20260507162549 | 73 | 206 | 1.0 | 2.0 | 0.00 | 0.00 | 0.00 | 39 | 1015.4 |
| 20260507162047 | 72 | 190 | 2.0 | 2.0 | 0.00 | 0.00 | 0.00 | 41 | 1015.4 |
| 20260507161543 | 72 | 182 | 0.0 | 2.0 | 0.00 | 0.00 | 0.00 | 41 | 1015.3 |
| 20260507161040 | 72 | 221 | 1.0 | 2.0 | 0.00 | 0.00 | 0.00 | 42 | 1015.4 |
| 20260507160536 | 71 | 183 | 0.0 | 2.0 | 0.00 | 0.00 | 0.00 | 42 | 1015.3 |
| 20260507160032 | 72 | 319 | 4.0 | 5.0 | 0.00 | 0.00 | 0.00 | 40 | 1015.4 |
| 20260507155528 | 72 | 190 | 1.0 | 2.0 | 0.00 | 0.00 | 0.00 | 42 | 1015.5 |
| 20260507155025 | 71 | 192 | 0.0 | 2.0 | 0.00 | 0.00 | 0.00 | 43 | 1015.3 |
| 20260507154522 | 71 | 188 | 1.0 | 4.0 | 0.00 | 0.00 | 0.00 | 45 | 1015.2 |
| 20260507154019 | 70 | 183 | 0.0 | 2.0 | 0.00 | 0.00 | 0.00 | 46 | 1015.2 |
| 20260507153516 | 70 | 194 | 1.0 | 2.0 | 0.00 | 0.00 | 0.00 | 45 | 1015.2 |
| 20260507153012 | 70 | 190 | 1.0 | 4.0 | 0.00 | 0.00 | 0.00 | 46 | 1015.4 |
| 20260507152508 | 69 | 296 | 1.0 | 2.0 | 0.00 | 0.00 | 0.00 | 47 | 1015.2 |
| 20260507152005 | 69 | 191 | 0.0 | 2.0 | 0.00 | 0.00 | 0.00 | 47 | 1015.2 |
| 20260507151501 | 69 | 201 | 1.0 | 4.0 | 0.00 | 0.00 | 0.00 | 48 | 1015.4 |
| 20260507150958 | 68 | 184 | 0.0 | 2.0 | 0.00 | 0.00 | 0.00 | 52 | 1015.3 |
| 20260507150454 | 67 | 168 | 1.0 | 2.0 | 0.00 | 0.00 | 0.00 | 54 | 1015.2 |
| 20260507145951 | 66 | 194 | 0.0 | 2.0 | 0.00 | 0.00 | 0.00 | 54 | 1015.1 |
| 20260507145446 | 66 | 222 | 1.0 | 4.0 | 0.00 | 0.00 | 0.00 | 54 | 1015.3 |
| 20260507144944 | 66 | 208 | 0.0 | 2.0 | 0.00 | 0.00 | 0.00 | 56 | 1015.0 |
| 20260507144441 | 66 | 229 | 0.0 | 4.0 | 0.00 | 0.00 | 0.00 | 55 | 1015.2 |
| 20260507143938 | 66 | 172 | 1.0 | 2.0 | 0.00 | 0.00 | 0.00 | 55 | 1015.1 |
| 20260507143435 | 66 | 182 | 1.0 | 2.0 | 0.00 | 0.00 | 0.00 | 55 | 1015.1 |
| 20260507142932 | 66 | 179 | 1.0 | 2.0 | 0.00 | 0.00 | 0.00 | 55 | 1015.1 |
| 20260507142427 | 65 | 180 | 0.0 | 2.0 | 0.00 | 0.00 | 0.00 | 55 | 1015.2 |
| 20260507141925 | 64 | 181 | 0.0 | 0.0 | 0.00 | 0.00 | 0.00 | 57 | 1015.2 |
| 20260507141421 | 64 | 175 | 0.0 | 2.0 | 0.00 | 0.00 | 0.00 | 57 | 1015.2 |
| 20260507140918 | 63 | 182 | 0.0 | 0.0 | 0.00 | 0.00 | 0.00 | 59 | 1015.1 |
| 20260507140414 | 63 | 187 | 0.0 | 2.0 | 0.00 | 0.00 | 0.00 | 60 | 1015.0 |
| 20260507135912 | 63 | 188 | 0.0 | 2.0 | 0.00 | 0.00 | 0.00 | 62 | 1014.8 |
| 20260507135408 | 62 | 186 | 0.0 | 0.0 | 0.00 | 0.00 | 0.00 | 64 | 1015.0 |
| 20260507134906 | 61 | 190 | 0.0 | 2.0 | 0.00 | 0.00 | 0.00 | 64 | 1015.0 |
| 20260507134402 | 60 | 186 | 0.0 | 2.0 | 0.00 | 0.00 | 0.00 | 67 | 1015.0 |
| 20260507133858 | 59 | 185 | 0.0 | 2.0 | 0.00 | 0.00 | 0.00 | 68 | 1014.7 |
| 20260507133354 | 58 | 194 | 0.0 | 2.0 | 0.00 | 0.00 | 0.00 | 70 | 1014.6 |
| 20260507132853 | 58 | 266 | 3.0 | 5.0 | 0.00 | 0.00 | 0.00 | 71 | 1014.7 |
| 20260507132349 | 57 | 188 | 0.0 | 5.0 | 0.00 | 0.00 | 0.00 | 73 | 1014.5 |
| 20260507131846 | 56 | 201 | 2.0 | 2.0 | 0.00 | 0.00 | 0.00 | 74 | 1014.6 |
| 20260507131343 | 56 | 197 | 2.0 | 5.0 | 0.00 | 0.00 | 0.00 | 74 | 1014.4 |
| 20260507130840 | 56 | 179 | 2.0 | 7.0 | 0.00 | 0.00 | 0.00 | 74 | 1014.3 |
| 20260507130336 | 56 | 183 | 2.0 | 5.0 | 0.00 | 0.00 | 0.00 | 74 | 1014.5 |
| 20260507125836 | 56 | 216 | 2.0 | 5.0 | 0.00 | 0.00 | 0.00 | 74 | 1014.2 |
| 20260507125333 | 56 | 222 | 3.0 | 11.0 | 0.00 | 0.00 | 0.00 | 75 | 1014.2 |
| 20260507124830 | 56 | 203 | 2.0 | 5.0 | 0.00 | 0.00 | 0.00 | 74 | 1014.2 |
| 20260507124326 | 56 | 215 | 3.0 | 5.0 | 0.00 | 0.00 | 0.00 | 74 | 1014.3 |
| 20260507123825 | 56 | 246 | 4.0 | 5.0 | 0.00 | 0.00 | 0.00 | 73 | 1014.2 |
| 20260507123322 | 56 | 249 | 5.0 | 7.0 | 0.00 | 0.00 | 0.00 | 74 | 1014.0 |
| 20260507122818 | 56 | 186 | 2.0 | 4.0 | 0.00 | 0.00 | 0.00 | 72 | 1014.2 |
| 20260507122313 | 56 | 246 | 2.0 | 4.0 | 0.00 | 0.00 | 0.00 | 72 | 1014.3 |
| 20260507121810 | 57 | 259 | 1.0 | 4.0 | 0.00 | 0.00 | 0.00 | 72 | 1014.2 |
| 20260507121306 | 57 | 192 | 0.0 | 2.0 | 0.00 | 0.00 | 0.00 | 71 | 1014.2 |
| 20260507120802 | 57 | 236 | 2.0 | 5.0 | 0.00 | 0.00 | 0.00 | 71 | 1014.1 |
| 20260507120258 | 57 | 255 | 4.0 | 7.0 | 0.00 | 0.00 | 0.00 | 71 | 1014.0 |
| 20260507115755 | 57 | 198 | 1.0 | 4.0 | 0.00 | 0.00 | 0.00 | 69 | 1014.0 |
| 20260507115250 | 57 | 205 | 1.0 | 4.0 | 0.00 | 0.00 | 0.00 | 69 | 1014.0 |
| 20260507114746 | 57 | 233 | 2.0 | 5.0 | 0.00 | 0.00 | 0.00 | 69 | 1013.9 |
| 20260507114244 | 57 | 253 | 5.0 | 7.0 | 0.00 | 0.00 | 0.00 | 70 | 1014.1 |
| 20260507113741 | 57 | 209 | 2.0 | 5.0 | 0.00 | 0.00 | 0.00 | 70 | 1014.0 |
| 20260507113238 | 57 | 205 | 4.0 | 5.0 | 0.00 | 0.00 | 0.00 | 70 | 1013.7 |
| 20260507112735 | 56 | 264 | 5.0 | 9.0 | 0.00 | 0.00 | 0.00 | 71 | 1014.0 |
| 20260507112232 | 56 | 261 | 4.0 | 9.0 | 0.00 | 0.00 | 0.00 | 73 | 1014.2 |
| 20260507111730 | 55 | 210 | 4.0 | 5.0 | 0.00 | 0.00 | 0.00 | 75 | 1014.0 |
| 20260507111227 | 55 | 192 | 1.0 | 4.0 | 0.00 | 0.00 | 0.00 | 75 | 1014.0 |
| 20260507110722 | 55 | 172 | 0.0 | 0.0 | 0.00 | 0.00 | 0.00 | 75 | 1014.1 |
| 20260507110219 | 55 | 166 | 0.0 | 2.0 | 0.00 | 0.00 | 0.00 | 77 | 1014.2 |
| 20260507105716 | 54 | 185 | 0.0 | 5.0 | 0.00 | 0.00 | 0.00 | 78 | 1013.9 |
| 20260507105212 | 54 | 191 | 1.0 | 2.0 | 0.00 | 0.00 | 0.00 | 76 | 1013.9 |
| 20260507104710 | 54 | 173 | 0.0 | 0.0 | 0.00 | 0.00 | 0.00 | 74 | 1014.1 |
| 20260507104206 | 55 | 171 | 0.0 | 0.0 | 0.00 | 0.00 | 0.00 | 73 | 1014.1 |
| 20260507103702 | 55 | 166 | 0.0 | 0.0 | 0.00 | 0.00 | 0.00 | 72 | 1014.1 |
| 20260507103159 | 56 | 163 | 1.0 | 2.0 | 0.00 | 0.00 | 0.00 | 72 | 1014.1 |
| 20260507102655 | 56 | 10 | 2.0 | 5.0 | 0.00 | 0.00 | 0.00 | 72 | 1014.2 |
| 20260507102152 | 56 | 14 | 4.0 | 5.0 | 0.00 | 0.00 | 0.00 | 72 | 1014.2 |
| 20260507101647 | 56 | 164 | 0.0 | 2.0 | 0.00 | 0.00 | 0.00 | 72 | 1013.7 |
| 20260507101143 | 56 | 270 | 3.0 | 4.0 | 0.00 | 0.00 | 0.00 | 72 | 1013.8 |
| 20260507100641 | 56 | 198 | 1.0 | 2.0 | 0.00 | 0.00 | 0.00 | 72 | 1014.0 |
| 20260507100140 | 57 | 175 | 0.0 | 2.0 | 0.00 | 0.00 | 0.00 | 71 | 1013.8 |
| 20260507095637 | 58 | 180 | 0.0 | 0.0 | 0.00 | 0.00 | 0.00 | 71 | 1013.6 |
| 20260507095133 | 58 | 184 | 0.0 | 2.0 | 0.00 | 0.00 | 0.00 | 69 | 1013.9 |
| 20260507094629 | 57 | 190 | 2.0 | 4.0 | 0.00 | 0.00 | 0.00 | 69 | 1013.8 |
| 20260507094126 | 58 | 189 | 0.0 | 0.0 | 0.00 | 0.00 | 0.00 | 68 | 1013.7 |
| 20260507093624 | 58 | 182 | 0.0 | 2.0 | 0.00 | 0.00 | 0.00 | 68 | 1013.6 |
| 20260507093123 | 58 | 191 | 0.0 | 2.0 | 0.00 | 0.00 | 0.00 | 68 | 1013.6 |
| 20260507092618 | 58 | 192 | 1.0 | 2.0 | 0.00 | 0.00 | 0.00 | 68 | 1013.6 |
| 20260507092115 | 58 | 205 | 2.0 | 4.0 | 0.00 | 0.00 | 0.00 | 68 | 1013.5 |
| 20260507091612 | 59 | 206 | 2.0 | 4.0 | 0.00 | 0.00 | 0.00 | 68 | 1013.5 |
| 20260507091108 | 58 | 174 | 2.0 | 7.0 | 0.00 | 0.00 | 0.00 | 68 | 1013.5 |
| 20260507090604 | 58 | 188 | 1.0 | 2.0 | 0.00 | 0.00 | 0.00 | 68 | 1013.8 |
| 20260507090101 | 59 | 181 | 0.0 | 0.0 | 0.00 | 0.00 | 0.00 | 66 | 1013.8 |
| 20260507085558 | 59 | 181 | 0.0 | 2.0 | 0.00 | 0.00 | 0.00 | 65 | 1013.6 |
| 20260507085055 | 59 | 194 | 1.0 | 2.0 | 0.00 | 0.00 | 0.00 | 66 | 1013.7 |
| 20260507084551 | 59 | 202 | 1.0 | 4.0 | 0.00 | 0.00 | 0.00 | 66 | 1013.7 |
| 20260507084048 | 59 | 194 | 0.0 | 2.0 | 0.00 | 0.00 | 0.00 | 67 | 1013.7 |
| 20260507083544 | 59 | 189 | 0.0 | 2.0 | 0.00 | 0.00 | 0.00 | 67 | 1013.6 |
| 20260507083042 | 59 | 207 | 0.0 | 2.0 | 0.00 | 0.00 | 0.00 | 67 | 1013.5 |
| 20260507082537 | 58 | 210 | 2.0 | 4.0 | 0.00 | 0.00 | 0.00 | 68 | 1013.5 |
| 20260507082034 | 58 | 271 | 1.0 | 4.0 | 0.00 | 0.00 | 0.00 | 70 | 1013.5 |
| 20260507081530 | 57 | 213 | 2.0 | 4.0 | 0.00 | 0.00 | 0.00 | 71 | 1013.4 |
| 20260507081028 | 58 | 196 | 0.0 | 2.0 | 0.00 | 0.00 | 0.00 | 69 | 1013.6 |
| 20260507080523 | 58 | 194 | 0.0 | 2.0 | 0.00 | 0.00 | 0.00 | 68 | 1013.7 |
| 20260507080020 | 59 | 194 | 0.0 | 0.0 | 0.00 | 0.00 | 0.00 | 67 | 1013.5 |
| 20260507075515 | 59 | 194 | 0.0 | 2.0 | 0.00 | 0.00 | 0.00 | 67 | 1013.6 |
| 20260507075012 | 60 | 191 | 0.0 | 0.0 | 0.00 | 0.00 | 0.00 | 66 | 1013.7 |
| 20260507074509 | 60 | 196 | 0.0 | 2.0 | 0.00 | 0.00 | 0.00 | 65 | 1013.6 |
| 20260507074008 | 61 | 190 | 0.0 | 0.0 | 0.00 | 0.00 | 0.00 | 61 | 1013.4 |
| 20260507073503 | 62 | 191 | 0.0 | 0.0 | 0.00 | 0.00 | 0.00 | 59 | 1013.4 |
| 20260507072959 | 63 | 191 | 0.0 | 0.0 | 0.00 | 0.00 | 0.00 | 59 | 1013.3 |
| 20260507072457 | 63 | 102 | 0.0 | 2.0 | 0.00 | 0.00 | 0.00 | 58 | 1013.3 |
| 20260507071954 | 63 | 331 | 3.0 | 4.0 | 0.00 | 0.00 | 0.00 | 59 | 1013.2 |
| 20260507071451 | 62 | 190 | 2.0 | 5.0 | 0.00 | 0.00 | 0.00 | 60 | 1013.1 |
| 20260507070948 | 61 | 189 | 0.0 | 4.0 | 0.00 | 0.00 | 0.00 | 61 | 1013.0 |
| 20260507070445 | 61 | 196 | 0.0 | 2.0 | 0.00 | 0.00 | 0.00 | 63 | 1012.9 |
| 20260507065942 | 61 | 217 | 1.0 | 2.0 | 0.00 | 0.00 | 0.00 | 61 | 1012.8 |
| 20260507065439 | 62 | 222 | 2.0 | 2.0 | 0.00 | 0.00 | 0.00 | 61 | 1012.8 |
| 20260507064936 | 62 | 200 | 0.0 | 2.0 | 0.00 | 0.00 | 0.00 | 60 | 1012.5 |
| 20260507064434 | 63 | 235 | 0.0 | 2.0 | 0.00 | 0.00 | 0.00 | 59 | 1012.6 |
| 20260507063932 | 63 | 190 | 2.0 | 4.0 | 0.00 | 0.00 | 0.00 | 59 | 1012.5 |
| 20260507063428 | 63 | 203 | 3.0 | 5.0 | 0.00 | 0.00 | 0.00 | 60 | 1012.5 |
| 20260507062925 | 63 | 212 | 1.0 | 5.0 | 0.00 | 0.00 | 0.00 | 60 | 1012.2 |
| 20260507062423 | 63 | 191 | 0.0 | 4.0 | 0.00 | 0.00 | 0.00 | 60 | 1012.3 |
| 20260507061920 | 63 | 195 | 2.0 | 2.0 | 0.00 | 0.00 | 0.00 | 59 | 1012.4 |
| 20260507061418 | 64 | 214 | 1.0 | 7.0 | 0.00 | 0.00 | 0.00 | 59 | 1012.5 |
| 20260507060916 | 64 | 288 | 1.0 | 9.0 | 0.00 | 0.00 | 0.00 | 59 | 1012.3 |
| 20260507060412 | 64 | 154 | 6.0 | 11.0 | 0.00 | 0.00 | 0.00 | 59 | 1012.4 |
| 20260507055909 | 64 | 334 | 4.0 | 7.0 | 0.00 | 0.00 | 0.00 | 59 | 1012.4 |
| 20260507055404 | 64 | 183 | 4.0 | 9.0 | 0.00 | 0.00 | 0.00 | 58 | 1012.5 |
| 20260507054902 | 64 | 205 | 4.0 | 7.0 | 0.00 | 0.00 | 0.00 | 59 | 1012.5 |
| 20260507054357 | 64 | 218 | 4.0 | 5.0 | 0.00 | 0.00 | 0.00 | 59 | 1012.6 |
| 20260507053855 | 64 | 175 | 4.0 | 7.0 | 0.00 | 0.00 | 0.00 | 58 | 1012.5 |
| 20260507053352 | 64 | 226 | 7.0 | 11.0 | 0.00 | 0.00 | 0.00 | 59 | 1012.5 |
| 20260507052851 | 65 | 124 | 5.0 | 9.0 | 0.00 | 0.00 | 0.00 | 58 | 1012.4 |
| 20260507052348 | 65 | 178 | 0.0 | 2.0 | 0.00 | 0.00 | 0.00 | 57 | 1012.6 |
| 20260507051845 | 65 | 183 | 0.0 | 2.0 | 0.00 | 0.00 | 0.00 | 55 | 1012.6 |
| 20260507051343 | 65 | 186 | 2.0 | 4.0 | 0.00 | 0.00 | 0.00 | 55 | 1012.6 |
| 20260507050839 | 65 | 185 | 2.0 | 4.0 | 0.00 | 0.00 | 0.00 | 55 | 1012.6 |
| 20260507050336 | 64 | 110 | 4.0 | 5.0 | 0.00 | 0.00 | 0.00 | 54 | 1012.5 |
| 20260507045833 | 64 | 168 | 0.0 | 2.0 | 0.00 | 0.00 | 0.00 | 52 | 1012.6 |
| 20260507045329 | 65 | 174 | 0.0 | 0.0 | 0.00 | 0.00 | 0.00 | 53 | 1012.3 |
| 20260507044826 | 66 | 185 | 4.0 | 7.0 | 0.00 | 0.00 | 0.00 | 53 | 1012.5 |
| 20260507044323 | 66 | 170 | 1.0 | 4.0 | 0.00 | 0.00 | 0.00 | 48 | 1012.2 |
| 20260507043819 | 66 | 172 | 0.0 | 2.0 | 0.00 | 0.00 | 0.00 | 45 | 1012.3 |
| 20260507043316 | 66 | 172 | 0.0 | 0.0 | 0.00 | 0.00 | 0.00 | 46 | 1012.4 |
| 20260507042812 | 66 | 188 | 0.0 | 4.0 | 0.00 | 0.00 | 0.00 | 45 | 1012.3 |
| 20260507042308 | 67 | 178 | 0.0 | 2.0 | 0.00 | 0.00 | 0.00 | 46 | 1012.4 |
| 20260507041805 | 67 | 173 | 0.0 | 4.0 | 0.00 | 0.00 | 0.00 | 45 | 1012.2 |
| 20260507041301 | 68 | 171 | 0.0 | 0.0 | 0.00 | 0.00 | 0.00 | 44 | 1012.2 |
| 20260507040758 | 69 | 161 | 0.0 | 2.0 | 0.00 | 0.00 | 0.00 | 44 | 1012.1 |
| 20260507040254 | 70 | 191 | 2.0 | 4.0 | 0.00 | 0.00 | 0.00 | 41 | 1012.1 |
| 20260507035751 | 71 | 184 | 0.0 | 2.0 | 0.00 | 0.00 | 0.00 | 37 | 1011.8 |
| 20260507035246 | 72 | 190 | 0.0 | 0.0 | 0.00 | 0.00 | 0.00 | 37 | 1011.7 |
| 20260507034744 | 73 | 192 | 1.0 | 4.0 | 0.00 | 0.00 | 0.00 | 35 | 1011.5 |
| 20260507034240 | 73 | 205 | 1.0 | 5.0 | 0.00 | 0.00 | 0.00 | 35 | 1011.7 |
| 20260507033739 | 73 | 243 | 2.0 | 9.0 | 0.00 | 0.00 | 0.00 | 34 | 1011.6 |
| 20260507033236 | 74 | 287 | 4.0 | 7.0 | 0.00 | 0.00 | 0.00 | 34 | 1011.4 |
| 20260507032733 | 74 | 319 | 4.0 | 7.0 | 0.00 | 0.00 | 0.00 | 34 | 1011.6 |
| 20260507032229 | 74 | 288 | 6.0 | 11.0 | 0.00 | 0.00 | 0.00 | 33 | 1011.3 |
| 20260507031726 | 74 | 217 | 8.0 | 13.0 | 0.00 | 0.00 | 0.00 | 34 | 1011.3 |
| 20260507031223 | 74 | 188 | 3.0 | 9.0 | 0.00 | 0.00 | 0.00 | 36 | 1011.1 |
| 20260507030720 | 73 | 282 | 2.0 | 4.0 | 0.00 | 0.00 | 0.00 | 38 | 1011.1 |
| 20260507030217 | 73 | 318 | 4.0 | 7.0 | 0.00 | 0.00 | 0.00 | 37 | 1011.1 |
| 20260507025714 | 73 | 293 | 4.0 | 5.0 | 0.00 | 0.00 | 0.00 | 38 | 1010.9 |
| 20260507025211 | 74 | 187 | 1.0 | 2.0 | 0.00 | 0.00 | 0.00 | 39 | 1010.8 |
| 20260507024709 | 76 | 186 | 1.0 | 5.0 | 0.00 | 0.00 | 0.00 | 37 | 1010.8 |
| 20260507024206 | 77 | 189 | 1.0 | 9.0 | 0.00 | 0.00 | 0.00 | 34 | 1010.9 |
| 20260507023701 | 77 | 301 | 4.0 | 7.0 | 0.00 | 0.00 | 0.00 | 33 | 1010.7 |
| 20260507023159 | 77 | 229 | 5.0 | 9.0 | 0.00 | 0.00 | 0.00 | 33 | 1010.8 |
| 20260507022656 | 78 | 291 | 3.0 | 11.0 | 0.00 | 0.00 | 0.00 | 32 | 1010.7 |
| 20260507022152 | 78 | 312 | 5.0 | 9.0 | 0.00 | 0.00 | 0.00 | 32 | 1010.6 |
| 20260507021648 | 78 | 249 | 3.0 | 9.0 | 0.00 | 0.00 | 0.00 | 32 | 1010.7 |
| 20260507021143 | 78 | 311 | 6.0 | 9.0 | 0.00 | 0.00 | 0.00 | 31 | 1010.5 |
| 20260507020642 | 79 | 269 | 4.0 | 9.0 | 0.00 | 0.00 | 0.00 | 31 | 1010.3 |
| 20260507020138 | 79 | 323 | 8.0 | 11.0 | 0.00 | 0.00 | 0.00 | 30 | 1010.5 |
| 20260507015637 | 79 | 321 | 4.0 | 7.0 | 0.00 | 0.00 | 0.00 | 31 | 1010.5 |
| 20260507015133 | 79 | 163 | 4.0 | 7.0 | 0.00 | 0.00 | 0.00 | 30 | 1010.4 |
| 20260507014630 | 79 | 306 | 3.0 | 5.0 | 0.00 | 0.00 | 0.00 | 32 | 1010.3 |
| 20260507014126 | 78 | 140 | 5.0 | 9.0 | 0.00 | 0.00 | 0.00 | 31 | 1010.2 |
| 20260507013623 | 78 | 290 | 3.0 | 4.0 | 0.00 | 0.00 | 0.00 | 35 | 1010.2 |
| 20260507013120 | 79 | 184 | 0.0 | 0.0 | 0.00 | 0.00 | 0.00 | 41 | 1010.4 |
| 20260507012617 | 80 | 175 | 0.0 | 2.0 | 0.00 | 0.00 | 0.00 | 39 | 1010.2 |
| 20260507012113 | 80 | 187 | 0.0 | 2.0 | 0.00 | 0.00 | 0.00 | 39 | 1010.2 |
| 20260507011611 | 80 | 186 | 0.0 | 0.0 | 0.00 | 0.00 | 0.00 | 38 | 1010.3 |
| 20260507011107 | 80 | 212 | 1.0 | 7.0 | 0.00 | 0.00 | 0.00 | 38 | 1010.3 |
| 20260507010602 | 79 | 318 | 14.0 | 20.0 | 0.00 | 0.00 | 0.00 | 40 | 1010.3 |
| 20260507010058 | 78 | 293 | 10.0 | 13.0 | 0.00 | 0.00 | 0.00 | 43 | 1010.3 |
| 20260507005556 | 78 | 236 | 6.0 | 11.0 | 0.00 | 0.00 | 0.00 | 43 | 1009.6 |
| 20260507005051 | 78 | 59 | 5.0 | 13.0 | 0.00 | 0.00 | 0.00 | 42 | 1009.3 |
| 20260507004549 | 79 | 207 | 5.0 | 13.0 | 0.00 | 0.00 | 0.00 | 42 | 1009.3 |
| 20260507004046 | 78 | 165 | 4.0 | 13.0 | 0.00 | 0.00 | 0.00 | 42 | 1009.4 |
| 20260507003542 | 79 | 234 | 4.0 | 11.0 | 0.00 | 0.00 | 0.00 | 42 | 1009.4 |
| 20260507003037 | 79 | 210 | 8.0 | 19.0 | 0.00 | 0.00 | 0.00 | 42 | 1009.6 |
| 20260507002534 | 79 | 261 | 6.0 | 11.0 | 0.00 | 0.00 | 0.00 | 41 | 1009.4 |
| 20260507002025 | 79 | 217 | 10.0 | 15.0 | 0.00 | 0.00 | 0.00 | 41 | 1009.3 |
| 20260507001521 | 79 | 223 | 8.0 | 13.0 | 0.00 | 0.00 | 0.00 | 41 | 1009.5 |
| 20260507001018 | 80 | 253 | 7.0 | 13.0 | 0.00 | 0.00 | 0.00 | 40 | 1009.4 |
| 20260507000514 | 80 | 182 | 5.0 | 19.0 | 0.00 | 0.00 | 0.00 | 40 | 1009.4 |
| 20260507000010 | 80 | 277 | 8.0 | 13.0 | 0.00 | 0.00 | 0.00 | 40 | 1009.3 |
| 20260506235507 | 80 | 200 | 5.0 | 13.0 | 0.00 | 0.00 | 0.00 | 40 | 1009.3 |
| 20260506235003 | 80 | 84 | 5.0 | 13.0 | 0.00 | 0.00 | 0.00 | 40 | 1009.4 |
| 20260506234500 | 80 | 240 | 7.0 | 15.0 | 0.00 | 0.00 | 0.00 | 39 | 1009.4 |
| 20260506233958 | 80 | 39 | 2.0 | 11.0 | 0.00 | 0.00 | 0.00 | 40 | 1009.5 |
| 20260506233454 | 80 | 176 | 9.0 | 17.0 | 0.00 | 0.00 | 0.00 | 40 | 1009.4 |
| 20260506232951 | 81 | 279 | 6.0 | 11.0 | 0.00 | 0.00 | 0.00 | 40 | 1009.6 |
| 20260506232447 | 82 | 201 | 3.0 | 11.0 | 0.00 | 0.00 | 0.00 | 40 | 1009.7 |
| 20260506231943 | 82 | 278 | 9.0 | 17.0 | 0.00 | 0.00 | 0.00 | 39 | 1009.8 |
| 20260506231441 | 82 | 230 | 7.0 | 13.0 | 0.00 | 0.00 | 0.00 | 37 | 1009.9 |
| 20260506230938 | 83 | 251 | 4.0 | 13.0 | 0.00 | 0.00 | 0.00 | 37 | 1009.9 |
| 20260506230434 | 83 | 264 | 9.0 | 11.0 | 0.00 | 0.00 | 0.00 | 37 | 1009.9 |
| 20260506225931 | 83 | 253 | 4.0 | 7.0 | 0.00 | 0.00 | 0.00 | 35 | 1009.9 |
| 20260506225428 | 83 | 120 | 6.0 | 13.0 | 0.00 | 0.00 | 0.00 | 37 | 1010.1 |
| 20260506224925 | 83 | 192 | 8.0 | 13.0 | 0.00 | 0.00 | 0.00 | 36 | 1010.1 |
| 20260506224422 | 82 | 251 | 7.0 | 13.0 | 0.00 | 0.00 | 0.00 | 35 | 1010.1 |
| 20260506223918 | 82 | 192 | 5.0 | 9.0 | 0.00 | 0.00 | 0.00 | 35 | 1010.2 |
| 20260506223414 | 81 | 239 | 5.0 | 7.0 | 0.00 | 0.00 | 0.00 | 36 | 1010.4 |
| 20260506222911 | 81 | 185 | 3.0 | 9.0 | 0.00 | 0.00 | 0.00 | 37 | 1010.3 |
| 20260506222408 | 81 | 269 | 3.0 | 7.0 | 0.00 | 0.00 | 0.00 | 36 | 1010.5 |
| 20260506221905 | 81 | 275 | 9.0 | 22.0 | 0.00 | 0.00 | 0.00 | 34 | 1010.1 |
| 20260506221402 | 81 | 236 | 7.0 | 13.0 | 0.00 | 0.00 | 0.00 | 34 | 1010.4 |
| 20260506220859 | 82 | 223 | 6.0 | 15.0 | 0.00 | 0.00 | 0.00 | 35 | 1010.7 |
| 20260506220355 | 82 | 277 | 9.0 | 11.0 | 0.00 | 0.00 | 0.00 | 33 | 1010.6 |
| 20260506215852 | 82 | 273 | 9.0 | 13.0 | 0.00 | 0.00 | 0.00 | 33 | 1010.7 |
| 20260506215347 | 82 | 165 | 8.0 | 15.0 | 0.00 | 0.00 | 0.00 | 31 | 1010.6 |
| 20260506214844 | 82 | 131 | 5.0 | 20.0 | 0.00 | 0.00 | 0.00 | 33 | 1010.7 |
| 20260506214341 | 81 | 196 | 7.0 | 15.0 | 0.00 | 0.00 | 0.00 | 35 | 1010.8 |
| 20260506213839 | 81 | 192 | 10.0 | 13.0 | 0.00 | 0.00 | 0.00 | 36 | 1010.9 |
| 20260506213336 | 81 | 128 | 8.0 | 17.0 | 0.00 | 0.00 | 0.00 | 34 | 1011.0 |
| 20260506212833 | 81 | 204 | 12.0 | 17.0 | 0.00 | 0.00 | 0.00 | 35 | 1011.0 |
| 20260506212329 | 81 | 259 | 6.0 | 11.0 | 0.00 | 0.00 | 0.00 | 35 | 1011.3 |
| 20260506211824 | 81 | 220 | 2.0 | 9.0 | 0.00 | 0.00 | 0.00 | 36 | 1011.2 |
| 20260506211320 | 81 | 215 | 6.0 | 17.0 | 0.00 | 0.00 | 0.00 | 35 | 1011.0 |
| 20260506210818 | 82 | 191 | 4.0 | 13.0 | 0.00 | 0.00 | 0.00 | 35 | 1011.3 |
| 20260506210314 | 82 | 185 | 8.0 | 15.0 | 0.00 | 0.00 | 0.00 | 34 | 1011.2 |
| 20260506205812 | 81 | 195 | 9.0 | 13.0 | 0.00 | 0.00 | 0.00 | 34 | 1011.4 |
| 20260506205307 | 81 | 281 | 11.0 | 15.0 | 0.00 | 0.00 | 0.00 | 35 | 1011.4 |
| 20260506204804 | 81 | 211 | 2.0 | 7.0 | 0.00 | 0.00 | 0.00 | 36 | 1011.5 |
| 20260506204302 | 81 | 234 | 10.0 | 15.0 | 0.00 | 0.00 | 0.00 | 36 | 1011.4 |
| 20260506203759 | 81 | 283 | 4.0 | 11.0 | 0.00 | 0.00 | 0.00 | 36 | 1011.3 |
| 20260506203257 | 81 | 188 | 6.0 | 13.0 | 0.00 | 0.00 | 0.00 | 36 | 1011.2 |
| 20260506202753 | 82 | 245 | 10.0 | 15.0 | 0.00 | 0.00 | 0.00 | 36 | 1011.3 |
| 20260506202250 | 82 | 170 | 9.0 | 20.0 | 0.00 | 0.00 | 0.00 | 35 | 1011.5 |
| 20260506201747 | 82 | 99 | 5.0 | 19.0 | 0.00 | 0.00 | 0.00 | 35 | 1011.5 |
| 20260506201243 | 82 | 237 | 6.0 | 13.0 | 0.00 | 0.00 | 0.00 | 35 | 1011.5 |
| 20260506200741 | 82 | 268 | 6.0 | 7.0 | 0.00 | 0.00 | 0.00 | 36 | 1011.5 |
| 20260506200237 | 83 | 290 | 5.0 | 15.0 | 0.00 | 0.00 | 0.00 | 34 | 1011.5 |
| 20260506195733 | 83 | 264 | 5.0 | 7.0 | 0.00 | 0.00 | 0.00 | 35 | 1011.8 |
| 20260506195230 | 82 | 194 | 2.0 | 7.0 | 0.00 | 0.00 | 0.00 | 35 | 1011.9 |
| 20260506194727 | 82 | 194 | 2.0 | 7.0 | 0.00 | 0.00 | 0.00 | 37 | 1011.9 |
| 20260506194224 | 81 | 184 | 5.0 | 7.0 | 0.00 | 0.00 | 0.00 | 35 | 1011.8 |
| 20260506193722 | 80 | 343 | 4.0 | 9.0 | 0.00 | 0.00 | 0.00 | 36 | 1011.9 |
| 20260506193218 | 80 | 203 | 5.0 | 13.0 | 0.00 | 0.00 | 0.00 | 36 | 1011.8 |
| 20260506192715 | 80 | 239 | 3.0 | 9.0 | 0.00 | 0.00 | 0.00 | 39 | 1012.0 |
| 20260506192211 | 80 | 193 | 1.0 | 9.0 | 0.00 | 0.00 | 0.00 | 40 | 1012.1 |
| 20260506191703 | 80 | 170 | 3.0 | 9.0 | 0.00 | 0.00 | 0.00 | 39 | 1011.9 |
| 20260506191159 | 79 | 191 | 1.0 | 5.0 | 0.00 | 0.00 | 0.00 | 39 | 1012.0 |
| 20260506190656 | 79 | 243 | 7.0 | 11.0 | 0.00 | 0.00 | 0.00 | 40 | 1012.0 |
| 20260506190152 | 78 | 207 | 2.0 | 7.0 | 0.00 | 0.00 | 0.00 | 41 | 1012.0 |
| 20260506185650 | 78 | 145 | 6.0 | 13.0 | 0.00 | 0.00 | 0.00 | 40 | 1012.0 |
| 20260506185146 | 78 | 207 | 3.0 | 11.0 | 0.00 | 0.00 | 0.00 | 43 | 1012.1 |
| 20260506184639 | 77 | 219 | 5.0 | 9.0 | 0.00 | 0.00 | 0.00 | 42 | 1012.2 |
| 20260506184136 | 77 | 256 | 6.0 | 13.0 | 0.00 | 0.00 | 0.00 | 41 | 1012.4 |
| 20260506183632 | 77 | 268 | 5.0 | 9.0 | 0.00 | 0.00 | 0.00 | 43 | 1012.2 |
| 20260506183128 | 77 | 203 | 3.0 | 11.0 | 0.00 | 0.00 | 0.00 | 43 | 1012.2 |
| 20260506182626 | 77 | 239 | 4.0 | 11.0 | 0.00 | 0.00 | 0.00 | 44 | 1012.2 |
| 20260506182122 | 77 | 227 | 7.0 | 13.0 | 0.00 | 0.00 | 0.00 | 43 | 1012.4 |
| 20260506181620 | 76 | 190 | 4.0 | 11.0 | 0.00 | 0.00 | 0.00 | 44 | 1012.5 |
| 20260506181117 | 76 | 212 | 6.0 | 9.0 | 0.00 | 0.00 | 0.00 | 43 | 1012.6 |
| 20260506180614 | 76 | 214 | 7.0 | 13.0 | 0.00 | 0.00 | 0.00 | 43 | 1012.5 |
| 20260506180111 | 75 | 241 | 7.0 | 9.0 | 0.00 | 0.00 | 0.00 | 45 | 1012.6 |
| 20260506175607 | 75 | 175 | 6.0 | 13.0 | 0.00 | 0.00 | 0.00 | 45 | 1012.5 |
| 20260506175103 | 75 | 192 | 6.0 | 9.0 | 0.00 | 0.00 | 0.00 | 46 | 1012.4 |
| 20260506174602 | 75 | 194 | 6.0 | 9.0 | 0.00 | 0.00 | 0.00 | 44 | 1012.8 |
| 20260506174058 | 75 | 205 | 8.0 | 15.0 | 0.00 | 0.00 | 0.00 | 46 | 1012.5 |
| 20260506173556 | 75 | 243 | 5.0 | 9.0 | 0.00 | 0.00 | 0.00 | 46 | 1012.8 |
| 20260506173052 | 74 | 168 | 4.0 | 9.0 | 0.00 | 0.00 | 0.00 | 48 | 1012.8 |
| 20260506172550 | 74 | 236 | 8.0 | 13.0 | 0.00 | 0.00 | 0.00 | 48 | 1012.8 |